CMP384 MGGT-MPTO

Flight info

Callsign CMP384
Flight time 1h 52m
Altitude 37000
Route KAPAN2A KAPAN UG436 CAT UA317 BUFEO DCT BITOR VUMAN2A
Aircraft B738/M-SDE2E3FGHIRWXY/LB1

Departure

Time 2026-04-22 00:28
Airport La Aurora International Airport (MGGT)

Arrival

Time 2026-04-22 02:20
Airport Tocumen International Airport (MPTO)
Time Latitude Longitude Altitude Speed Heading
2026-04-22 00:01 14.59159 -90.52801 4917 ft 0 kts 287°
2026-04-22 00:11 14.59158 -90.52798 4937 ft 3 kts 287°
2026-04-22 00:11 14.59152 -90.52778 4941 ft 3 kts 287°
2026-04-22 00:11 14.59145 -90.52757 4941 ft 3 kts 287°
2026-04-22 00:12 14.59139 -90.52737 4940 ft 3 kts 287°
2026-04-22 00:12 14.59134 -90.52718 4940 ft 1 kts 277°
2026-04-22 00:12 14.59134 -90.52709 4941 ft 1 kts 227°
2026-04-22 00:12 14.59141 -90.52704 4942 ft 1 kts 203°
2026-04-22 00:13 14.59149 -90.52701 4940 ft 1 kts 198°
2026-04-22 00:13 14.59157 -90.52698 4941 ft 1 kts 197°
2026-04-22 00:13 14.59162 -90.52697 4940 ft 0 kts 197°
2026-04-22 00:16 14.59153 -90.52700 4940 ft 3 kts 198°
2026-04-22 00:16 14.59129 -90.52707 4941 ft 4 kts 198°
2026-04-22 00:16 14.59099 -90.52717 4942 ft 6 kts 197°
2026-04-22 00:17 14.59055 -90.52731 4942 ft 4 kts 197°
2026-04-22 00:18 14.59048 -90.52733 4942 ft 2 kts 197°
2026-04-22 00:18 14.59011 -90.52745 4942 ft 7 kts 197°
2026-04-22 00:18 14.58956 -90.52763 4942 ft 9 kts 197°
2026-04-22 00:18 14.58896 -90.52782 4942 ft 9 kts 192°
2026-04-22 00:19 14.58836 -90.52770 4942 ft 9 kts 153°
2026-04-22 00:19 14.58792 -90.52729 4942 ft 8 kts 120°
2026-04-22 00:19 14.58763 -90.52684 4941 ft 8 kts 160°
2026-04-22 00:19 14.58707 -90.52696 4939 ft 9 kts 198°
2026-04-22 00:20 14.58646 -90.52716 4940 ft 10 kts 197°
2026-04-22 00:20 14.58571 -90.52740 4938 ft 12 kts 197°
2026-04-22 00:20 14.58491 -90.52766 4936 ft 12 kts 198°
2026-04-22 00:20 14.58413 -90.52792 4932 ft 12 kts 197°
2026-04-22 00:21 14.58338 -90.52815 4934 ft 11 kts 197°
2026-04-22 00:21 14.58262 -90.52840 4930 ft 12 kts 197°
2026-04-22 00:21 14.58184 -90.52865 4931 ft 12 kts 197°
2026-04-22 00:21 14.58107 -90.52890 4919 ft 11 kts 197°
2026-04-22 00:22 14.58028 -90.52916 4919 ft 13 kts 198°
2026-04-22 00:22 14.57934 -90.52947 4914 ft 16 kts 197°
2026-04-22 00:22 14.57839 -90.52977 4911 ft 14 kts 197°
2026-04-22 00:22 14.57743 -90.53008 4912 ft 14 kts 197°
2026-04-22 00:23 14.57651 -90.53038 4906 ft 14 kts 197°
2026-04-22 00:23 14.57562 -90.53066 4905 ft 13 kts 198°
2026-04-22 00:23 14.57477 -90.53094 4905 ft 13 kts 198°
2026-04-22 00:23 14.57394 -90.53121 4904 ft 12 kts 197°
2026-04-22 00:24 14.57313 -90.53147 4908 ft 12 kts 197°
2026-04-22 00:24 14.57234 -90.53173 4906 ft 12 kts 198°
2026-04-22 00:24 14.57158 -90.53197 4906 ft 11 kts 197°
2026-04-22 00:24 14.57095 -90.53210 4907 ft 4 kts 172°
2026-04-22 00:25 14.57073 -90.53193 4908 ft 4 kts 123°
2026-04-22 00:25 14.57075 -90.53156 4908 ft 6 kts 56°
2026-04-22 00:25 14.57090 -90.53148 4906 ft 0 kts 19°
2026-04-22 00:27 14.57130 -90.53135 4909 ft 29 kts 17°
2026-04-22 00:27 14.57555 -90.52998 4912 ft 97 kts 17°
2026-04-22 00:27 14.58390 -90.52729 4935 ft 152 kts 18°
2026-04-22 00:27 14.59518 -90.52374 5191 ft 181 kts 18°
2026-04-22 00:28 14.60752 -90.51994 6028 ft 184 kts 15°
2026-04-22 00:28 14.62014 -90.51705 6810 ft 189 kts 15°
2026-04-22 00:28 14.63386 -90.51413 7123 ft 212 kts 14°
2026-04-22 00:28 14.64837 -90.50884 7269 ft 233 kts 38°
2026-04-22 00:29 14.65773 -90.49513 7664 ft 242 kts 73°
2026-04-22 00:29 14.65995 -90.47691 7889 ft 269 kts 88°
2026-04-22 00:29 14.65974 -90.45729 8514 ft 277 kts 90°
2026-04-22 00:29 14.65921 -90.43725 9227 ft 283 kts 90°
2026-04-22 00:30 14.65879 -90.41678 10014 ft 286 kts 89°
2026-04-22 00:30 14.65856 -90.39581 10523 ft 301 kts 89°
2026-04-22 00:30 14.65846 -90.37326 10681 ft 326 kts 89°
2026-04-22 00:30 14.65836 -90.34916 11004 ft 343 kts 91°
2026-04-22 00:31 14.65334 -90.32494 11578 ft 351 kts 112°
2026-04-22 00:31 14.63967 -90.30396 12199 ft 357 kts 134°
2026-04-22 00:31 14.61928 -90.28927 12892 ft 361 kts 154°
2026-04-22 00:31 14.59616 -90.27910 13616 ft 363 kts 157°
2026-04-22 00:32 14.57283 -90.26953 14199 ft 367 kts 157°
2026-04-22 00:32 14.54861 -90.25971 14783 ft 370 kts 158°
2026-04-22 00:32 14.52462 -90.24991 15342 ft 373 kts 157°
2026-04-22 00:32 14.50069 -90.24001 15865 ft 378 kts 157°
2026-04-22 00:33 14.47619 -90.22977 16385 ft 381 kts 157°
2026-04-22 00:33 14.45155 -90.21943 16914 ft 385 kts 157°
2026-04-22 00:33 14.42661 -90.20892 17417 ft 388 kts 157°
2026-04-22 00:33 14.40149 -90.19833 17934 ft 391 kts 157°
2026-04-22 00:34 14.37616 -90.18764 18421 ft 395 kts 157°
2026-04-22 00:34 14.35063 -90.17688 18846 ft 398 kts 157°
2026-04-22 00:34 14.32493 -90.16605 19281 ft 400 kts 157°
2026-04-22 00:34 14.29906 -90.15514 19705 ft 402 kts 156°
2026-04-22 00:35 14.27498 -90.14044 20096 ft 405 kts 138°
2026-04-22 00:35 14.25574 -90.11923 20526 ft 406 kts 130°
2026-04-22 00:35 14.23770 -90.09672 20920 ft 409 kts 129°
2026-04-22 00:35 14.21967 -90.07385 21307 ft 412 kts 129°
2026-04-22 00:36 14.20152 -90.05090 21717 ft 415 kts 129°
2026-04-22 00:36 14.18314 -90.02788 22117 ft 417 kts 129°
2026-04-22 00:36 14.16459 -90.00485 22523 ft 419 kts 130°
2026-04-22 00:36 14.14584 -89.98170 22910 ft 422 kts 130°
2026-04-22 00:37 14.12694 -89.95842 23280 ft 424 kts 130°
2026-04-22 00:37 14.10792 -89.93501 23627 ft 427 kts 130°
2026-04-22 00:37 14.08877 -89.91143 23920 ft 430 kts 130°
2026-04-22 00:37 14.06975 -89.88803 24216 ft 433 kts 130°
2026-04-22 00:38 14.05041 -89.86422 24518 ft 435 kts 130°
2026-04-22 00:38 14.03115 -89.84007 24822 ft 437 kts 129°
2026-04-22 00:38 14.01200 -89.81567 25113 ft 439 kts 129°
2026-04-22 00:38 13.99285 -89.79116 25401 ft 441 kts 129°
2026-04-22 00:39 13.97358 -89.76651 25682 ft 443 kts 129°
2026-04-22 00:39 13.95418 -89.74175 25961 ft 445 kts 129°
2026-04-22 00:39 13.93468 -89.71692 26240 ft 447 kts 129°
2026-04-22 00:39 13.91507 -89.69199 26513 ft 449 kts 130°
2026-04-22 00:40 13.89538 -89.66698 26774 ft 451 kts 130°
2026-04-22 00:40 13.87558 -89.64182 27035 ft 453 kts 130°
2026-04-22 00:40 13.85570 -89.61658 27294 ft 454 kts 130°
2026-04-22 00:40 13.83578 -89.59130 27551 ft 456 kts 130°
2026-04-22 00:41 13.81599 -89.56620 27795 ft 458 kts 130°
2026-04-22 00:41 13.79588 -89.54071 28036 ft 460 kts 130°
2026-04-22 00:41 13.77569 -89.51512 28273 ft 462 kts 130°
2026-04-22 00:41 13.75541 -89.48941 28516 ft 463 kts 130°
2026-04-22 00:42 13.73507 -89.46363 28751 ft 465 kts 130°
2026-04-22 00:42 13.71463 -89.43774 28986 ft 467 kts 130°
2026-04-22 00:42 13.69411 -89.41173 29223 ft 469 kts 130°
2026-04-22 00:42 13.67354 -89.38568 29435 ft 470 kts 130°
2026-04-22 00:43 13.65289 -89.35953 29651 ft 472 kts 130°
2026-04-22 00:43 13.63213 -89.33325 29868 ft 474 kts 130°
2026-04-22 00:43 13.61129 -89.30689 30092 ft 475 kts 130°
2026-04-22 00:43 13.59036 -89.28042 30286 ft 477 kts 130°
2026-04-22 00:44 13.56942 -89.25393 30519 ft 477 kts 130°
2026-04-22 00:44 13.54851 -89.22750 30793 ft 476 kts 130°
2026-04-22 00:44 13.52787 -89.20142 30950 ft 475 kts 130°
2026-04-22 00:44 13.50704 -89.17509 31207 ft 475 kts 130°
2026-04-22 00:45 13.48624 -89.14881 31474 ft 474 kts 130°
2026-04-22 00:45 13.46540 -89.12250 31744 ft 474 kts 130°
2026-04-22 00:45 13.44469 -89.09623 32009 ft 473 kts 128°
2026-04-22 00:45 13.42625 -89.06825 32278 ft 474 kts 120°
2026-04-22 00:46 13.41190 -89.03780 32564 ft 473 kts 115°
2026-04-22 00:46 13.39865 -89.00685 32851 ft 472 kts 114°
2026-04-22 00:46 13.38564 -88.97592 33136 ft 472 kts 114°
2026-04-22 00:46 13.37258 -88.94502 33407 ft 471 kts 114°
2026-04-22 00:47 13.35939 -88.91417 33683 ft 471 kts 114°
2026-04-22 00:47 13.34613 -88.88348 33953 ft 470 kts 115°
2026-04-22 00:47 13.33281 -88.85287 34191 ft 469 kts 115°
2026-04-22 00:47 13.31960 -88.82266 34400 ft 469 kts 115°
2026-04-22 00:48 13.30621 -88.79210 34632 ft 468 kts 115°
2026-04-22 00:48 13.29287 -88.76164 34855 ft 468 kts 115°
2026-04-22 00:48 13.27952 -88.73118 35071 ft 467 kts 115°
2026-04-22 00:48 13.26622 -88.70082 35291 ft 467 kts 115°
2026-04-22 00:49 13.25291 -88.67041 35514 ft 466 kts 115°
2026-04-22 00:49 13.23962 -88.64010 35741 ft 466 kts 115°
2026-04-22 00:49 13.22634 -88.60978 35952 ft 465 kts 115°
2026-04-22 00:49 13.21307 -88.57952 36170 ft 465 kts 115°
2026-04-22 00:50 13.19983 -88.54931 36364 ft 464 kts 115°
2026-04-22 00:50 13.18657 -88.51910 36585 ft 464 kts 115°
2026-04-22 00:50 13.17333 -88.48893 36779 ft 463 kts 115°
2026-04-22 00:51 13.15138 -88.43896 36879 ft 462 kts 115°
2026-04-22 00:51 13.12489 -88.37870 36909 ft 464 kts 115°
2026-04-22 00:52 13.09829 -88.31821 36916 ft 466 kts 114°
2026-04-22 00:52 13.07155 -88.25748 36919 ft 468 kts 114°
2026-04-22 00:53 13.04473 -88.19663 36924 ft 468 kts 115°
2026-04-22 00:53 13.01789 -88.13575 36927 ft 468 kts 115°
2026-04-22 00:54 12.99108 -88.07498 36937 ft 467 kts 115°
2026-04-22 00:54 12.96431 -88.01434 36935 ft 466 kts 115°
2026-04-22 00:55 12.93761 -87.95389 36934 ft 465 kts 115°
2026-04-22 00:55 12.89787 -87.86400 36936 ft 463 kts 115°
2026-04-22 00:56 12.87127 -87.80393 36937 ft 462 kts 115°
2026-04-22 00:56 12.84463 -87.74413 36935 ft 461 kts 115°
2026-04-22 00:57 12.81793 -87.68432 36933 ft 460 kts 115°
2026-04-22 00:57 12.79129 -87.62464 36934 ft 460 kts 115°
2026-04-22 00:58 12.76469 -87.56507 36930 ft 460 kts 115°
2026-04-22 00:58 12.73819 -87.50574 36928 ft 460 kts 115°
2026-04-22 00:59 12.71159 -87.44624 36930 ft 460 kts 115°
2026-04-22 00:59 12.68496 -87.38670 36930 ft 460 kts 115°
2026-04-22 01:00 12.65832 -87.32721 36924 ft 460 kts 115°
2026-04-22 01:00 12.63162 -87.26760 36925 ft 460 kts 115°
2026-04-22 01:01 12.60491 -87.20800 36925 ft 461 kts 115°
2026-04-22 01:01 12.57817 -87.14839 36927 ft 461 kts 115°
2026-04-22 01:02 12.55139 -87.08874 36924 ft 461 kts 115°
2026-04-22 01:02 12.52463 -87.02906 36922 ft 461 kts 115°
2026-04-22 01:03 12.49786 -86.96932 36923 ft 462 kts 115°
2026-04-22 01:03 12.47108 -86.90960 36914 ft 462 kts 115°
2026-04-22 01:04 12.44426 -86.84986 36919 ft 462 kts 115°
2026-04-22 01:04 12.41761 -86.79055 36920 ft 462 kts 115°
2026-04-22 01:05 12.39073 -86.73075 36908 ft 463 kts 115°
2026-04-22 01:05 12.36384 -86.67097 36908 ft 463 kts 115°
2026-04-22 01:06 12.33694 -86.61119 36904 ft 463 kts 115°
2026-04-22 01:06 12.31001 -86.55140 36903 ft 462 kts 115°
2026-04-22 01:07 12.28305 -86.49160 36906 ft 462 kts 115°
2026-04-22 01:07 12.25614 -86.43193 36911 ft 462 kts 115°
2026-04-22 01:08 12.22921 -86.37226 36917 ft 462 kts 115°
2026-04-22 01:08 12.20247 -86.31305 36920 ft 461 kts 115°
2026-04-22 01:09 12.17555 -86.25346 36927 ft 461 kts 115°
2026-04-22 01:09 12.14864 -86.19395 36955 ft 461 kts 115°
2026-04-22 01:10 12.11624 -86.13762 36965 ft 460 kts 125°
2026-04-22 01:10 12.07911 -86.08440 36950 ft 460 kts 126°
2026-04-22 01:11 12.04187 -86.03118 36948 ft 460 kts 126°
2026-04-22 01:11 12.00505 -85.97787 36939 ft 460 kts 126°
2026-04-22 01:12 11.96854 -85.92467 36924 ft 460 kts 125°
2026-04-22 01:12 11.93187 -85.87121 36913 ft 460 kts 125°
2026-04-22 01:13 11.89515 -85.81773 36915 ft 460 kts 126°
2026-04-22 01:13 11.85844 -85.76432 36916 ft 459 kts 126°
2026-04-22 01:14 11.82171 -85.71089 36921 ft 459 kts 126°
2026-04-22 01:14 11.78535 -85.65726 36919 ft 459 kts 124°
2026-04-22 01:15 11.75087 -85.60227 36924 ft 459 kts 123°
2026-04-22 01:15 11.71705 -85.54755 36925 ft 458 kts 123°
2026-04-22 01:16 11.68283 -85.49272 36928 ft 458 kts 123°
2026-04-22 01:16 11.64842 -85.43800 36931 ft 457 kts 123°
2026-04-22 01:17 11.61401 -85.38343 36932 ft 457 kts 124°
2026-04-22 01:17 11.57961 -85.32893 36937 ft 457 kts 124°
2026-04-22 01:18 11.54523 -85.27445 36941 ft 457 kts 124°
2026-04-22 01:18 11.51083 -85.21998 36943 ft 456 kts 124°
2026-04-22 01:19 11.47643 -85.16555 36946 ft 456 kts 124°
2026-04-22 01:19 11.44204 -85.11115 36946 ft 456 kts 124°
2026-04-22 01:20 11.40766 -85.05679 36950 ft 456 kts 124°
2026-04-22 01:20 11.37326 -85.00242 36953 ft 456 kts 124°
2026-04-22 01:21 11.33911 -84.94849 36955 ft 456 kts 124°
2026-04-22 01:21 11.30467 -84.89411 36957 ft 456 kts 124°
2026-04-22 01:22 11.27018 -84.83969 36959 ft 456 kts 124°
2026-04-22 01:22 11.23574 -84.78539 36957 ft 456 kts 124°
2026-04-22 01:23 11.20125 -84.73105 36965 ft 456 kts 124°
2026-04-22 01:23 11.16696 -84.67703 36965 ft 457 kts 124°
2026-04-22 01:24 11.13244 -84.62268 36972 ft 457 kts 124°
2026-04-22 01:24 11.09787 -84.56828 36970 ft 457 kts 124°
2026-04-22 01:25 11.06327 -84.51385 36975 ft 457 kts 124°
2026-04-22 01:25 11.02866 -84.45945 36975 ft 458 kts 124°
2026-04-22 01:26 10.99407 -84.40511 36978 ft 458 kts 124°
2026-04-22 01:26 10.95961 -84.35098 36976 ft 458 kts 124°
2026-04-22 01:27 10.92493 -84.29656 36980 ft 458 kts 124°
2026-04-22 01:27 10.89025 -84.24215 36989 ft 458 kts 124°
2026-04-22 01:28 10.85553 -84.18771 36986 ft 458 kts 124°
2026-04-22 01:28 10.82084 -84.13334 36982 ft 458 kts 124°
2026-04-22 01:29 10.78614 -84.07899 36989 ft 458 kts 124°
2026-04-22 01:29 10.75150 -84.02475 36993 ft 457 kts 124°
2026-04-22 01:30 10.71682 -83.97049 36993 ft 457 kts 124°
2026-04-22 01:30 10.68244 -83.91673 36992 ft 457 kts 125°
2026-04-22 01:31 10.64776 -83.86251 36992 ft 457 kts 125°
2026-04-22 01:31 10.61312 -83.80838 36996 ft 457 kts 125°
2026-04-22 01:32 10.57844 -83.75422 36996 ft 457 kts 125°
2026-04-22 01:32 10.54378 -83.70012 36995 ft 457 kts 125°
2026-04-22 01:33 10.50910 -83.64601 36996 ft 457 kts 125°
2026-04-22 01:33 10.47464 -83.59228 37000 ft 457 kts 125°
2026-04-22 01:34 10.43996 -83.53821 37003 ft 457 kts 125°
2026-04-22 01:34 10.40524 -83.48414 37002 ft 457 kts 125°
2026-04-22 01:35 10.37053 -83.43008 37003 ft 457 kts 125°
2026-04-22 01:35 10.33581 -83.37604 37002 ft 457 kts 125°
2026-04-22 01:36 10.30107 -83.32199 37003 ft 457 kts 125°
2026-04-22 01:36 10.26632 -83.26796 37002 ft 457 kts 125°
2026-04-22 01:37 10.23158 -83.21396 37003 ft 457 kts 125°
2026-04-22 01:37 10.19680 -83.15994 37004 ft 457 kts 125°
2026-04-22 01:38 10.16789 -83.11505 37008 ft 457 kts 125°
2026-04-22 01:38 10.13308 -83.06102 37005 ft 457 kts 125°
2026-04-22 01:39 10.09828 -83.00702 37005 ft 457 kts 125°
2026-04-22 01:39 10.06346 -82.95304 37005 ft 457 kts 125°
2026-04-22 01:40 10.02865 -82.89908 37005 ft 456 kts 125°
2026-04-22 01:40 9.99408 -82.84552 37002 ft 456 kts 125°
2026-04-22 01:41 9.95926 -82.79160 37003 ft 456 kts 125°
2026-04-22 01:41 9.92448 -82.73776 37002 ft 456 kts 125°
2026-04-22 01:42 9.88968 -82.68391 37004 ft 456 kts 125°
2026-04-22 01:42 9.85495 -82.63019 37000 ft 456 kts 125°
2026-04-22 01:43 9.82055 -82.57615 36996 ft 456 kts 121°
2026-04-22 01:43 9.79622 -82.51662 37003 ft 458 kts 111°
2026-04-22 01:44 9.77584 -82.45578 36998 ft 459 kts 110°
2026-04-22 01:44 9.75519 -82.39457 36999 ft 458 kts 111°
2026-04-22 01:45 9.73421 -82.33360 37002 ft 458 kts 111°
2026-04-22 01:45 9.71305 -82.27264 37000 ft 458 kts 111°
2026-04-22 01:46 9.69186 -82.21173 36996 ft 458 kts 111°
2026-04-22 01:46 9.67064 -82.15076 36994 ft 458 kts 111°
2026-04-22 01:47 9.64947 -82.08993 36993 ft 458 kts 111°
2026-04-22 01:47 9.62829 -82.02907 36996 ft 458 kts 111°
2026-04-22 01:48 9.60719 -81.96850 36994 ft 458 kts 111°
2026-04-22 01:48 9.58596 -81.90762 36996 ft 457 kts 111°
2026-04-22 01:49 9.56477 -81.84685 36996 ft 457 kts 111°
2026-04-22 01:49 9.54359 -81.78619 36997 ft 457 kts 111°
2026-04-22 01:50 9.52238 -81.72545 36993 ft 457 kts 111°
2026-04-22 01:50 9.50110 -81.66458 36625 ft 459 kts 111°
2026-04-22 01:51 9.49044 -81.63408 36373 ft 457 kts 111°
2026-04-22 01:51 9.47998 -81.60418 36141 ft 457 kts 111°
2026-04-22 01:51 9.46934 -81.57376 35860 ft 457 kts 111°
2026-04-22 01:51 9.45871 -81.54337 35189 ft 459 kts 111°
2026-04-22 01:52 9.44806 -81.51295 34704 ft 456 kts 111°
2026-04-22 01:52 9.43751 -81.48280 34266 ft 453 kts 111°
2026-04-22 01:52 9.42700 -81.45280 33762 ft 451 kts 111°
2026-04-22 01:52 9.41654 -81.42296 33290 ft 447 kts 111°
2026-04-22 01:53 9.40620 -81.39344 32826 ft 444 kts 110°
2026-04-22 01:53 9.39590 -81.36407 32374 ft 440 kts 110°
2026-04-22 01:53 9.38571 -81.33499 31932 ft 437 kts 110°
2026-04-22 01:53 9.37557 -81.30610 31497 ft 433 kts 110°
2026-04-22 01:54 9.36552 -81.27747 31065 ft 430 kts 110°
2026-04-22 01:54 9.35554 -81.24902 30641 ft 427 kts 110°
2026-04-22 01:54 9.34562 -81.22078 30210 ft 424 kts 110°
2026-04-22 01:54 9.33577 -81.19272 29719 ft 421 kts 110°
2026-04-22 01:55 9.32598 -81.16487 29248 ft 417 kts 110°
2026-04-22 01:55 9.31644 -81.13770 28791 ft 413 kts 110°
2026-04-22 01:55 9.30683 -81.11035 28352 ft 409 kts 110°
2026-04-22 01:55 9.29735 -81.08338 27912 ft 405 kts 110°
2026-04-22 01:56 9.28793 -81.05660 27479 ft 401 kts 110°
2026-04-22 01:56 9.27860 -81.03007 27058 ft 398 kts 109°
2026-04-22 01:56 9.26933 -81.00372 26635 ft 394 kts 109°
2026-04-22 01:56 9.26030 -80.97768 26306 ft 389 kts 109°
2026-04-22 01:57 9.25155 -80.95195 25904 ft 386 kts 108°
2026-04-22 01:57 9.24291 -80.92633 25505 ft 383 kts 108°
2026-04-22 01:57 9.23434 -80.90091 25099 ft 380 kts 108°
2026-04-22 01:57 9.22581 -80.87563 24679 ft 379 kts 108°
2026-04-22 01:58 9.21731 -80.85048 24262 ft 377 kts 108°
2026-04-22 01:58 9.20884 -80.82545 23853 ft 375 kts 108°
2026-04-22 01:58 9.20037 -80.80048 23397 ft 374 kts 108°
2026-04-22 01:58 9.19194 -80.77562 22936 ft 372 kts 108°
2026-04-22 01:59 9.18359 -80.75100 22503 ft 369 kts 108°
2026-04-22 01:59 9.17539 -80.72685 22090 ft 366 kts 108°
2026-04-22 01:59 9.16713 -80.70250 21676 ft 363 kts 108°
2026-04-22 01:59 9.15894 -80.67838 21277 ft 361 kts 108°
2026-04-22 02:00 9.15082 -80.65448 20874 ft 359 kts 108°
2026-04-22 02:00 9.14273 -80.63067 20477 ft 357 kts 108°
2026-04-22 02:00 9.13467 -80.60695 20077 ft 355 kts 108°
2026-04-22 02:00 9.12667 -80.58340 19686 ft 353 kts 108°
2026-04-22 02:01 9.11868 -80.55991 19280 ft 352 kts 108°
2026-04-22 02:01 9.11072 -80.53650 18875 ft 352 kts 108°
2026-04-22 02:01 9.10278 -80.51314 18518 ft 350 kts 108°
2026-04-22 02:01 9.09486 -80.48987 18110 ft 349 kts 108°
2026-04-22 02:02 9.08698 -80.46670 17683 ft 347 kts 108°
2026-04-22 02:02 9.07915 -80.44370 17337 ft 343 kts 108°
2026-04-22 02:02 9.07150 -80.42125 17203 ft 333 kts 108°
2026-04-22 02:02 9.06404 -80.39934 17050 ft 325 kts 108°
2026-04-22 02:03 9.05792 -80.37788 16761 ft 322 kts 102°
2026-04-22 02:03 9.05353 -80.35569 16451 ft 321 kts 99°
2026-04-22 02:03 9.04967 -80.33341 16139 ft 322 kts 98°
2026-04-22 02:03 9.04585 -80.31106 15815 ft 322 kts 98°
2026-04-22 02:04 9.03797 -80.26650 15185 ft 321 kts 99°
2026-04-22 02:04 9.03393 -80.24435 14870 ft 321 kts 99°
2026-04-22 02:04 9.02983 -80.22215 14546 ft 320 kts 99°
2026-04-22 02:05 9.02571 -80.20003 14223 ft 320 kts 99°
2026-04-22 02:05 9.02158 -80.17798 13912 ft 318 kts 99°
2026-04-22 02:05 9.01745 -80.15598 13562 ft 318 kts 99°
2026-04-22 02:05 9.01333 -80.13407 13221 ft 315 kts 99°
2026-04-22 02:06 9.00923 -80.11232 12899 ft 313 kts 99°
2026-04-22 02:06 9.00517 -80.09077 12586 ft 310 kts 99°
2026-04-22 02:06 9.00115 -80.06944 12268 ft 308 kts 99°
2026-04-22 02:06 8.99720 -80.04851 11973 ft 305 kts 99°
2026-04-22 02:07 8.99324 -80.02750 11669 ft 303 kts 99°
2026-04-22 02:07 8.98931 -80.00664 11373 ft 301 kts 99°
2026-04-22 02:07 8.98540 -79.98595 11073 ft 299 kts 99°
2026-04-22 02:07 8.98152 -79.96540 10783 ft 296 kts 99°
2026-04-22 02:08 8.97767 -79.94498 10486 ft 295 kts 99°
2026-04-22 02:08 8.97383 -79.92467 10035 ft 298 kts 99°
2026-04-22 02:08 8.96998 -79.90431 9862 ft 283 kts 98°
2026-04-22 02:08 8.96627 -79.88467 9246 ft 285 kts 98°
2026-04-22 02:09 8.96258 -79.86513 8849 ft 280 kts 98°
2026-04-22 02:09 8.95897 -79.84609 8542 ft 272 kts 98°
2026-04-22 02:09 8.95546 -79.82756 8251 ft 265 kts 98°
2026-04-22 02:09 8.95147 -79.80961 7968 ft 258 kts 104°
2026-04-22 02:10 8.94604 -79.79236 7718 ft 257 kts 106°
2026-04-22 02:10 8.94029 -79.77525 7457 ft 257 kts 106°
2026-04-22 02:10 8.93459 -79.75832 7196 ft 256 kts 106°
2026-04-22 02:10 8.92891 -79.74127 6943 ft 256 kts 106°
2026-04-22 02:11 8.92328 -79.72421 6674 ft 256 kts 105°
2026-04-22 02:11 8.91767 -79.70714 6412 ft 255 kts 105°
2026-04-22 02:11 8.91579 -79.70139 6318 ft 255 kts 106°
2026-04-22 02:11 8.91015 -79.68410 6031 ft 255 kts 105°
2026-04-22 02:12 8.90460 -79.66707 5762 ft 254 kts 105°
2026-04-22 02:12 8.89905 -79.65002 5504 ft 255 kts 105°
2026-04-22 02:12 8.89351 -79.63301 5243 ft 254 kts 105°
2026-04-22 02:12 8.88804 -79.61623 5125 ft 247 kts 105°
2026-04-22 02:13 8.88356 -79.59975 4949 ft 240 kts 91°
2026-04-22 02:13 8.88441 -79.58344 4873 ft 226 kts 82°
2026-04-22 02:13 8.88567 -79.56793 4816 ft 218 kts 83°
2026-04-22 02:13 8.88681 -79.55282 4699 ft 210 kts 83°
2026-04-22 02:14 8.88786 -79.53842 4591 ft 203 kts 83°
2026-04-22 02:14 8.88923 -79.52417 4386 ft 202 kts 73°
2026-04-22 02:14 8.89603 -79.51239 4217 ft 191 kts 45°
2026-04-22 02:14 8.90572 -79.50346 4022 ft 185 kts 39°
2026-04-22 02:15 8.91537 -79.49517 3804 ft 179 kts 39°
2026-04-22 02:15 8.92460 -79.48723 3599 ft 174 kts 39°
2026-04-22 02:15 8.93369 -79.47938 3419 ft 170 kts 39°
2026-04-22 02:15 8.94264 -79.47163 3220 ft 168 kts 40°
2026-04-22 02:16 8.95147 -79.46398 3034 ft 167 kts 39°
2026-04-22 02:16 8.96017 -79.45642 2895 ft 163 kts 40°
2026-04-22 02:16 8.96930 -79.44956 2663 ft 159 kts 31°
2026-04-22 02:16 8.97859 -79.44380 2451 ft 157 kts 30°
2026-04-22 02:17 8.98803 -79.43814 2236 ft 160 kts 30°
2026-04-22 02:17 8.99758 -79.43242 1999 ft 158 kts 30°
2026-04-22 02:17 9.00664 -79.42699 1812 ft 150 kts 28°
2026-04-22 02:17 9.01561 -79.42162 1576 ft 149 kts 29°
2026-04-22 02:18 9.02444 -79.41633 1381 ft 149 kts 29°
2026-04-22 02:18 9.03334 -79.41100 1166 ft 148 kts 28°
2026-04-22 02:18 9.04224 -79.40566 942 ft 151 kts 30°
2026-04-22 02:18 9.05122 -79.40029 741 ft 149 kts 31°
2026-04-22 02:19 9.06008 -79.39487 517 ft 149 kts 31°
2026-04-22 02:19 9.06909 -79.38951 247 ft 151 kts 31°
2026-04-22 02:19 9.07804 -79.38416 51 ft 142 kts 31°
2026-04-22 02:19 9.08535 -79.37977 45 ft 93 kts 31°
2026-04-22 02:20 9.08822 -79.37798 46 ft 8 kts 54°
2026-04-22 02:20 9.08818 -79.37743 42 ft 6 kts 120°
2026-04-22 02:20 9.08797 -79.37708 38 ft 3 kts 121°
2026-04-22 02:20 9.08768 -79.37660 33 ft 12 kts 121°
2026-04-22 02:21 9.08725 -79.37586 31 ft 11 kts 121°
2026-04-22 02:21 9.08659 -79.37587 30 ft 11 kts 209°
2026-04-22 02:21 9.08596 -79.37625 30 ft 10 kts 212°
2026-04-22 02:21 9.08535 -79.37661 30 ft 10 kts 210°
2026-04-22 02:22 9.08481 -79.37704 30 ft 10 kts 225°
2026-04-22 02:22 9.08434 -79.37752 31 ft 10 kts 225°
2026-04-22 02:22 9.08390 -79.37798 31 ft 10 kts 225°